Home   Weather   Irving   Past weeks
Flag for USA

Past Weather in Irving, Texas, USA — Yesterday and Last 2 Weeks

Now
56 °F

Passing clouds.


Feels Like: 56 °F
Forecast: 78 / 53 °F
Wind: 3 mph from Southeast

Location: Dallas / Fort Worth International Airport

Current Time: Oct 18, 2019 at 2:22:05 am

Latest Report: Oct 18, 2019 at 12:53 am


Visibility: 10 mi

Pressure: 29.88 "Hg

Humidity: 70%

Dew Point: 46 °F

Location of IrvingLocation

Past Weather in Irving — Graph

°F

Irving Temperature Yesterday

Maximum temperature yesterday: 72 °F (at 3:53 pm)
Minimum temperature yesterday: 49 °F (at 6:53 am)
Average temperature yesterday: 59 °F

High & Low Weather Summary for the Past Weeks

 TemperatureHumidityPressure
High96 °F (Oct 6, 3:53 pm)97% (Oct 15, 2:09 am)30.29 "Hg (Oct 15, 2:09 am)
Low43 °F (Oct 11, 7:29 am)17% (Oct 12, 1:53 pm)29.68 "Hg (Oct 10, 6:53 pm)
Average70 °F60%29.99 "Hg
* Reported Oct 3 12:53 am — Oct 18 12:53 am, Irving. Weather by CustomWeather, © 2019

Note: Actual official high and low records may vary slightly from our data, if they occured in-between our weather recording intervals... More about our weather records

Advertising

Irving Weather History for the Previous 24 Hours

Scroll right to see more
 ConditionsComfort  
Time TempWeatherWind HumidityBarometerVisibility
12:53 am
Fri, Oct 18
56 °FPassing clouds.3 mph70%29.88 "Hg10 mi
11:53 pm
Thu, Oct 17
56 °FPassing clouds.3 mph70%29.89 "Hg10 mi
10:53 pm57 °FClear.5 mph69%29.91 "Hg10 mi
9:53 pm57 °FClear.6 mph67%29.92 "Hg10 mi
8:53 pm58 °FPassing clouds.7 mph67%29.92 "Hg10 mi
7:53 pm60 °FPassing clouds.8 mph60%29.93 "Hg10 mi
6:53 pm65 °FPassing clouds.8 mph45%29.92 "Hg10 mi
5:53 pm69 °FPartly sunny.12 mph41%29.92 "Hg10 mi
4:53 pm70 °FPartly sunny.9 mph38%29.92 "Hg10 mi
3:53 pm72 °FPartly sunny.6 mph31%29.92 "Hg10 mi
2:53 pm71 °FPartly sunny.6 mph31%29.95 "Hg10 mi
1:53 pm70 °FPartly sunny.7 mph37%29.98 "Hg10 mi
12:53 pm67 °FPartly sunny.7 mph41%30.03 "Hg10 mi
11:53 am64 °FPartly sunny.10 mph47%30.04 "Hg10 mi
10:53 am61 °FPartly sunny.8 mph52%30.06 "Hg10 mi
8:53 am53 °FPartly sunny.No wind83%30.06 "Hg10 mi
7:53 am50 °FPartly sunny.No wind74%30.05 "Hg10 mi
6:53 am49 °FPartly cloudy.No wind77%30.06 "Hg10 mi
5:53 am50 °FPartly cloudy.No wind77%30.04 "Hg10 mi
4:53 am50 °FPassing clouds.No wind74%30.06 "Hg10 mi
3:53 am53 °FPassing clouds.3 mph69%30.07 "Hg10 mi
2:53 am52 °FPassing clouds.No wind69%30.07 "Hg10 mi
Weather by CustomWeather, © 2019

See weather overview